TimeMST,TemperatureF,Dew PointF,Humidity,Sea Level PressureIn,VisibilityMPH,Wind Direction,Wind SpeedMPH,Gust SpeedMPH,PrecipitationIn,Events,Conditions,WindDirDegrees,DateUTC
12:15 AM,41.0,32.0,70,30.07,10.0,South,4.6,-,N/A,,Overcast,170,2012-11-19 07:15:00
12:35 AM,39.2,33.8,81,30.08,10.0,SSE,4.6,-,N/A,,Overcast,150,2012-11-19 07:35:00
12:55 AM,39.2,33.8,81,30.07,10.0,ESE,6.9,-,N/A,,Overcast,120,2012-11-19 07:55:00
1:15 AM,41.0,35.6,81,30.07,10.0,ESE,8.1,-,N/A,,Mostly Cloudy,110,2012-11-19 08:15:00
1:35 AM,41.0,35.6,81,30.08,10.0,SE,4.6,-,N/A,,Scattered Clouds,130,2012-11-19 08:35:00
1:55 AM,41.0,37.4,87,30.08,10.0,ESE,6.9,-,N/A,,Scattered Clouds,120,2012-11-19 08:55:00
2:15 AM,42.8,37.4,81,30.08,10.0,SE,5.8,-,N/A,,Mostly Cloudy,140,2012-11-19 09:15:00
2:35 AM,44.6,39.2,81,30.08,10.0,SE,10.4,-,N/A,,Overcast,130,2012-11-19 09:35:00
2:55 AM,44.6,39.2,81,30.09,10.0,SSE,9.2,-,N/A,,Overcast,150,2012-11-19 09:55:00
3:15 AM,44.6,39.2,81,30.08,10.0,SE,8.1,-,N/A,,Overcast,140,2012-11-19 10:15:00
3:35 AM,42.8,39.2,87,30.09,10.0,SE,6.9,-,N/A,,Overcast,140,2012-11-19 10:35:00
3:55 AM,42.8,39.2,87,30.08,10.0,South,6.9,-,N/A,,Overcast,170,2012-11-19 10:55:00
4:15 AM,42.8,39.2,87,30.08,10.0,South,8.1,-,N/A,,Overcast,180,2012-11-19 11:15:00
4:35 AM,42.8,39.2,87,30.08,10.0,SSE,8.1,-,N/A,,Overcast,150,2012-11-19 11:35:00
4:55 AM,41.0,39.2,93,30.09,10.0,SE,6.9,-,N/A,,Overcast,140,2012-11-19 11:55:00
5:15 AM,41.0,39.2,93,30.09,10.0,SSE,3.5,-,N/A,,Overcast,160,2012-11-19 12:15:00
5:35 AM,41.0,39.2,93,30.10,10.0,SSE,3.5,-,N/A,,Overcast,150,2012-11-19 12:35:00
5:55 AM,41.0,39.2,93,30.10,10.0,SSE,4.6,-,N/A,,Overcast,150,2012-11-19 12:55:00
6:15 AM,41.0,39.2,93,30.09,10.0,SE,6.9,-,N/A,,Overcast,140,2012-11-19 13:15:00
6:35 AM,41.0,39.2,93,30.10,10.0,SE,6.9,-,N/A,,Mostly Cloudy,140,2012-11-19 13:35:00
6:55 AM,42.8,39.2,87,30.10,10.0,SE,4.6,-,N/A,,Overcast,130,2012-11-19 13:55:00
7:15 AM,41.0,37.4,87,30.11,10.0,SE,6.9,-,N/A,,Overcast,140,2012-11-19 14:15:00
7:35 AM,41.0,37.4,87,30.11,10.0,SE,8.1,-,N/A,,Overcast,140,2012-11-19 14:35:00
7:55 AM,41.0,37.4,87,30.11,10.0,SSE,11.5,-,N/A,,Overcast,150,2012-11-19 14:55:00
8:15 AM,41.0,37.4,87,30.12,10.0,SE,10.4,-,N/A,,Overcast,130,2012-11-19 15:15:00
8:35 AM,42.8,39.2,87,30.12,10.0,SE,11.5,-,N/A,,Overcast,140,2012-11-19 15:35:00
8:55 AM,44.6,39.2,81,30.12,10.0,SSE,11.5,-,N/A,,Overcast,150,2012-11-19 15:55:00
9:15 AM,46.4,39.2,76,30.13,10.0,SSE,9.2,-,N/A,,Overcast,150,2012-11-19 16:15:00
9:35 AM,46.4,39.2,76,30.14,10.0,South,12.7,17.3,N/A,,Overcast,180,2012-11-19 16:35:00
9:55 AM,46.4,39.2,76,30.14,10.0,South,6.9,17.3,N/A,,Overcast,170,2012-11-19 16:55:00
10:15 AM,48.2,39.2,71,30.13,10.0,SE,12.7,-,N/A,,Scattered Clouds,140,2012-11-19 17:15:00
10:35 AM,50.0,39.2,66,30.13,10.0,SE,17.3,25.3,N/A,,Partly Cloudy,140,2012-11-19 17:35:00
10:55 AM,51.8,39.2,62,30.13,10.0,SE,18.4,25.3,N/A,,Clear,140,2012-11-19 17:55:00
11:15 AM,51.8,39.2,62,30.13,10.0,SE,12.7,23.0,N/A,,Clear,140,2012-11-19 18:15:00
11:35 AM,53.6,37.4,54,30.13,10.0,SSE,15.0,24.2,N/A,,Partly Cloudy,150,2012-11-19 18:35:00
11:55 AM,53.6,37.4,54,30.12,10.0,SE,13.8,19.6,N/A,,Partly Cloudy,140,2012-11-19 18:55:00
12:15 PM,53.6,37.4,54,30.11,10.0,SE,13.8,20.7,N/A,,Partly Cloudy,140,2012-11-19 19:15:00
12:35 PM,55.4,35.6,47,30.09,10.0,SSE,15.0,18.4,N/A,,Scattered Clouds,150,2012-11-19 19:35:00
12:55 PM,55.4,35.6,47,30.09,10.0,SE,15.0,20.7,N/A,,Mostly Cloudy,140,2012-11-19 19:55:00
1:15 PM,55.4,35.6,47,30.08,10.0,SE,12.7,16.1,N/A,,Scattered Clouds,130,2012-11-19 20:15:00
1:35 PM,55.4,35.6,47,30.07,10.0,SE,12.7,20.7,N/A,,Clear,140,2012-11-19 20:35:00
1:55 PM,57.2,35.6,44,30.07,10.0,SE,11.5,19.6,N/A,,Mostly Cloudy,140,2012-11-19 20:55:00
2:15 PM,57.2,35.6,44,30.07,10.0,SSE,10.4,19.6,N/A,,Mostly Cloudy,150,2012-11-19 21:15:00
2:35 PM,57.2,35.6,44,30.06,10.0,SE,15.0,20.7,N/A,,Clear,140,2012-11-19 21:35:00
2:55 PM,57.2,35.6,44,30.05,10.0,SE,10.4,-,N/A,,Scattered Clouds,130,2012-11-19 21:55:00
3:15 PM,57.2,35.6,44,30.05,10.0,SE,12.7,20.7,N/A,,Scattered Clouds,130,2012-11-19 22:15:00
3:35 PM,55.4,37.4,51,30.05,10.0,SE,11.5,18.4,N/A,,Mostly Cloudy,140,2012-11-19 22:35:00
3:55 PM,55.4,37.4,51,30.05,10.0,SE,9.2,-,N/A,,Mostly Cloudy,140,2012-11-19 22:55:00
4:15 PM,55.4,37.4,51,30.06,10.0,SE,10.4,-,N/A,,Overcast,130,2012-11-19 23:15:00
4:35 PM,53.6,41.0,62,30.07,8.0,SE,6.9,-,N/A,,Overcast,140,2012-11-19 23:35:00
4:55 PM,53.6,41.0,62,30.08,9.0,South,9.2,18.4,N/A,,Mostly Cloudy,190,2012-11-19 23:55:00
5:15 PM,53.6,41.0,62,30.08,10.0,SSE,6.9,-,N/A,,Overcast,160,2012-11-20 00:15:00
5:35 PM,51.8,42.8,71,30.06,10.0,SE,8.1,-,N/A,,Overcast,130,2012-11-20 00:35:00
5:55 PM,50.0,44.6,82,30.07,10.0,SE,4.6,-,N/A,,Overcast,130,2012-11-20 00:55:00
6:15 PM,50.0,42.8,76,30.06,6.0,ESE,10.4,-,0.01,,Overcast,110,2012-11-20 01:15:00
6:35 PM,50.0,44.6,82,30.04,8.0,ESE,15.0,19.6,0.02,,Overcast,110,2012-11-20 01:35:00
6:55 PM,50.0,42.8,76,30.05,10.0,SE,9.2,-,0.02,,Mostly Cloudy,130,2012-11-20 01:55:00
7:15 PM,51.8,42.8,71,30.04,10.0,ESE,13.8,18.4,N/A,,Overcast,120,2012-11-20 02:15:00
7:35 PM,51.8,41.0,67,30.03,10.0,ESE,13.8,19.6,N/A,,Mostly Cloudy,120,2012-11-20 02:35:00
7:55 PM,51.8,41.0,67,30.03,10.0,ESE,12.7,25.3,N/A,,Partly Cloudy,120,2012-11-20 02:55:00
8:15 PM,51.8,41.0,67,30.03,10.0,SE,13.8,20.7,N/A,,Partly Cloudy,130,2012-11-20 03:15:00
8:35 PM,50.0,41.0,71,30.03,10.0,SE,12.7,18.4,N/A,,Partly Cloudy,130,2012-11-20 03:35:00
8:55 PM,51.8,41.0,67,30.03,10.0,SE,13.8,19.6,N/A,,Mostly Cloudy,130,2012-11-20 03:55:00
9:15 PM,53.6,39.2,58,30.03,10.0,SE,16.1,24.2,N/A,,Overcast,130,2012-11-20 04:15:00
9:35 PM,53.6,39.2,58,30.03,10.0,SE,13.8,19.6,N/A,,Overcast,130,2012-11-20 04:35:00
9:55 PM,51.8,39.2,62,30.03,10.0,ESE,10.4,-,N/A,,Overcast,120,2012-11-20 04:55:00
10:15 PM,51.8,39.2,62,30.03,10.0,ESE,11.5,17.3,N/A,,Overcast,120,2012-11-20 05:15:00
10:55 PM,53.6,39.2,58,30.02,10.0,SE,10.4,17.3,N/A,,Mostly Cloudy,140,2012-11-20 05:55:00
11:15 PM,53.6,37.4,54,30.01,10.0,SE,11.5,-,N/A,,Mostly Cloudy,140,2012-11-20 06:15:00
11:35 PM,53.6,37.4,54,30.02,10.0,SE,15.0,20.7,N/A,,Mostly Cloudy,130,2012-11-20 06:35:00
11:55 PM,53.6,37.4,54,30.01,10.0,SE,11.5,-,N/A,,Scattered Clouds,140,2012-11-20 06:55:00